Dewpoint
-6 -6 -3 0 -4 -3 -4 -6 -4 -4 -5 -7 -5 -3 -0 0 5 1 6 9 8 9 5 8 9 11 11 9 9 9 9 10 11 11 11 11 10 10 4 1 -1 -1 -1 -0 0 -0 -1 -1 -1
-6 -4 -0 -1 -5 -7 -6 -4 -3 -4 -5 -4 -5 -4 4 2 4 5 3 2 3 6 6 6 8 10 10 7 7 8 9 10 10 11 10 10 10 6 3 1 0 -1 -1 -1 -1 -1 -0 -0 -0
-6 -2 0 -1 -1 -6 -2 -3 -3 -4 -5 -4 -6 -6 -3 1 5 6 5 3 3 4 6 5 7 7 7 6 5 6 7 8 9 10 10 10 8 4 3 2 0 -0 -1 -1 -1 -1 -1 0 1
-4 -1 -2 0 -1 -1 -2 -3 -3 -4 -5 -5 -7 -6 3 6 7 7 6 4 5 4 5 6 6 7 6 6 5 5 7 7 7 7 8 8 6 4 5 4 3 1 0 -1 -1 -1 -1 0 1
-3 -2 -0 0 -1 -2 -3 -4 -4 -4 -5 -4 -6 -2 5 5 7 7 7 7 8 7 5 6 6 8 8 8 8 6 5 7 8 8 7 7 5 5 6 6 5 2 1 -0 -1 -0 1 2 0
-2 -2 0 -2 -2 -2 -3 -3 -4 -4 -4 -4 -4 -1 4 0 2 6 6 8 9 10 7 7 7 9 9 10 10 10 8 7 8 8 8 7 5 6 8 8 7 4 2 0 -1 -1 -0 1 2
-3 -1 -1 -1 -1 -2 -4 -5 -4 -4 -4 -4 -3 -2 -0 -5 -7 5 7 7 9 9 9 9 8 9 9 10 10 10 11 10 9 9 9 7 5 6 8 9 8 6 3 1 -1 -1 -0 -1 -1
-4 -3 -1 -2 -3 -4 -5 -4 -4 -4 -4 -4 -4 -4 -4 -5 -4 -4 6 7 7 9 9 9 8 8 8 9 10 11 11 11 11 10 10 8 6 6 8 9 9 8 4 2 0 0 -0 -2 -3
-4 -2 -2 -3 -3 -4 -4 -3 -4 -4 -4 -4 -5 -5 -5 -5 -5 -3 3 8 8 7 8 9 9 9 8 9 10 11 11 12 12 12 11 9 7 7 9 10 10 9 5 2 1 2 0 -3 -3
-3 -1 -3 -4 -4 -3 -3 -4 -4 -4 -4 -4 -4 -4 -4 -3 -3 -3 1 2 6 6 5 7 9 9 9 9 10 11 11 12 13 13 12 10 9 8 9 9 11 11 7 3 3 3 0 -6 -2
-3 -1 -2 -3 -3 -3 -4 -4 -4 -3 -3 -4 -3 -4 -4 -3 -2 -1 0 1 -1 -0 5 6 7 9 9 9 10 10 11 12 13 13 13 11 10 9 9 10 11 12 9 5 5 4 -1 -8 -6
-2 -3 -4 -4 -4 -4 -3 -3 -3 -3 -3 -3 -3 -3 -4 -6 -6 -1 -1 2 4 2 4 5 7 8 8 9 9 9 10 11 12 12 13 13 11 10 10 10 10 12 11 7 6 4 1 -6 -9
-3 -4 -3 -3 -1 -1 -2 -2 -2 -2 -3 -3 -3 -5 -7 -7 -7 -6 -5 2 5 6 8 8 9 9 9 9 9 8 9 10 11 12 13 13 13 12 11 11 11 11 12 10 7 5 3 -1 -9
-3 -2 -1 -1 -1 -1 -1 -2 -2 -3 -3 -4 -3 -6 -7 -7 -7 -7 -5 -2 2 8 10 9 10 10 11 11 10 10 9 10 11 15 14 13 14 13 12 12 11 12 13 12 9 7 4 -1 -7
-1 -0 -1 -1 -1 -2 -2 -1 -1 -2 -2 -2 -5 -6 -5 -4 -4 -4 -5 -6 -6 -5 4 7 9 11 11 12 12 12 11 11 12 15 14 12 14 14 13 12 12 12 12 12 11 9 1 -3 -5
-1 -0 2 -1 -2 -2 -2 1 -1 -2 -3 -3 -6 -3 -3 -2 1 2 1 -0 -1 -3 -5 -5 -1 4 7 11 13 13 13 13 13 13 11 13 14 14 14 14 13 13 13 11 12 8 5 1 5
0 2 2 0 -2 -1 -2 0 -2 -2 -3 -2 0 -2 -4 -4 -3 1 4 4 5 3 -1 -3 -3 6 8 10 13 15 15 14 13 12 11 11 13 13 13 13 13 12 11 10 11 8 8 8 7
1 1 1 1 -1 -1 -1 -0 -2 -2 -2 1 -2 -5 -7 -9 -9 -9 -7 -1 5 6 4 -1 2 12 14 14 14 14 15 15 14 13 11 10 11 12 13 13 11 11 12 12 10 8 7 7 8
-1 0 1 -0 -1 -0 0 -0 -1 -2 0 -1 -6 -9 -9 -9 -10 -10 -9 -9 -6 2 7 8 11 12 12 13 13 14 14 14 14 14 13 11 11 12 11 10 10 10 11 11 10 9 8 8 8
0 2 2 1 -1 0 -0 -0 -2 -3 -3 -8 -10 -10 -9 -6 -5 -7 -7 -7 -9 -8 -6 -4 1 6 10 12 13 13 14 14 13 13 13 13 13 12 12 10 10 11 12 11 11 10 9 7 6
2 3 3 3 1 -2 -2 -0 -3 -7 -9 -11 -11 -9 -8 -6 -5 -6 -7 -7 -6 -8 -8 -7 -5 -3 -5 -3 3 11 11 11 12 12 12 12 12 12 12 11 11 11 11 11 10 10 9 6 6
4 1 1 2 2 4 -1 5 1 -5 -9 -11 -9 -7 -5 -5 -5 -7 -9 -10 -10 -10 -6 -6 -5 -5 -4 -4 -3 -3 -1 3 2 6 8 10 10 10 11 11 10 10 10 10 10 10 9 7 6
4 1 1 1 2 2 2 3 -0 -7 -8 -10 -9 -5 -4 -5 -6 -7 -9 -11 -11 -11 -10 -10 -10 -8 -4 -4 -4 -2 -3 -4 -1 0 0 1 -0 0 9 10 10 9 10 9 9 9 8 7 7
1 -0 1 -0 0 4 2 2 1 -3 -7 -10 -8 -4 -5 -5 -5 -6 -8 -7 -6 -6 -6 -6 -8 -9 -9 -7 -3 -2 -3 -4 -4 -3 -1 1 -1 -0 -1 3 9 9 8 8 9 9 8 7 7
-1 3 7 6 4 5 1 2 0 -10 -10 -8 -4 -4 -5 -5 -6 -5 -6 -9 -10 -10 -8 -6 -5 -5 -9 -11 -8 -1 -2 -2 -2 -2 -3 -2 -1 1 -1 -2 4 6 9 8 8 8 8 8 7
2 3 6 9 6 5 2 4 -1 -11 -6 -4 -4 -4 -6 -6 -4 -5 -8 -10 -12 -13 -12 -12 -11 -9 -11 -12 -9 -4 -1 -2 -4 -5 -3 -2 -3 -1 3 1 2 3 3 5 8 8 8 7 8
2 2 1 5 3 6 3 -5 -10 -9 -4 -3 -3 -4 -5 -4 -4 -6 -10 -10 -9 -8 -7 -4 -5 -7 -5 -0 -4 -3 0 -0 -0 -1 -0 0 1 3 0 2 4 3 2 3 6 6 7 7 7
1 -0 5 6 9 8 4 3 2 -7 -3 -2 -3 -3 -3 -4 -6 -9 -9 -6 -3 -3 -3 -3 -4 -4 1 0 -1 1 0 -1 -1 -2 -1 -1 0 1 4 3 2 1 6 3 3 5 5 7 6
2 2 2 5 8 8 7 3 -6 -2 -2 -2 -3 -4 -4 -3 -4 -3 -2 -2 -1 -0 0 -0 0 -2 1 1 0 -1 -4 -5 -6 -5 -3 -1 -1 -0 4 4 3 2 4 4 3 3 4 4 6
-1 1 2 8 7 8 6 5 -4 -3 -4 -5 -4 -4 -4 -4 -4 -3 -3 -1 -0 -0 0 -0 0 1 2 1 1 -3 -5 -5 -5 -6 -5 -4 -4 -3 -0 2 5 5 4 5 4 4 4 5 3
Wind_Speed
6 4 5 3 2 1 2 1 2 4 3 4 5 6 3 3 3 3 4 11 11 12 17 22 25 27 26 26 24 24 24 26 28 28 26 24 23 19 16 16 15 15 16 15 14 14 14 14 13
6 5 3 3 2 2 2 2 4 8 15 15 8 8 5 3 4 1 9 8 9 10 15 21 25 27 28 27 26 25 26 27 28 28 26 24 22 20 17 16 14 15 15 15 16 15 14 15 14
8 5 1 3 2 1 2 5 5 13 12 2 2 5 3 1 3 2 5 12 11 12 15 20 25 28 29 28 27 26 26 27 26 26 25 24 23 20 18 17 15 16 17 16 16 15 15 14 14
6 3 5 0 3 3 4 4 5 13 9 9 6 3 1 3 2 3 10 16 12 12 16 21 25 28 30 30 28 27 26 26 25 25 25 25 23 21 20 18 16 17 17 16 16 17 16 15 14
8 3 2 1 3 4 6 8 7 8 9 11 5 5 3 4 5 5 9 18 15 16 18 22 26 29 30 30 29 28 27 27 26 26 25 26 24 23 22 20 18 18 18 18 18 17 15 15 16
4 3 2 3 4 4 6 8 3 3 6 10 6 12 3 11 9 8 6 16 15 17 18 23 27 30 31 31 30 30 29 28 27 27 27 27 26 25 24 21 19 19 18 19 20 19 18 17 17
4 3 2 2 3 4 3 2 0 6 7 8 6 8 5 15 15 6 7 12 15 18 20 23 27 30 32 31 31 31 30 30 30 29 29 28 27 26 24 23 22 20 19 20 21 21 21 21 20
4 2 3 3 2 4 1 4 5 10 8 13 10 4 7 17 13 12 10 12 14 18 20 21 25 28 32 34 34 33 33 32 32 31 30 30 29 28 27 25 23 20 20 22 22 23 23 23 23
5 2 3 4 4 1 1 7 6 15 12 13 5 11 11 14 17 16 14 17 18 20 23 24 26 29 32 34 36 35 34 33 33 33 32 32 32 31 29 29 27 23 22 23 24 24 24 24 24
4 3 7 4 3 3 8 8 15 8 15 6 13 16 15 17 18 16 17 18 21 23 25 27 28 29 30 34 36 37 36 36 36 36 35 36 36 35 34 33 29 24 23 25 26 26 26 26 26
4 4 4 5 10 10 9 10 4 7 9 11 20 31 22 23 19 18 21 23 22 23 28 28 30 30 31 34 37 38 39 39 39 39 39 40 39 37 35 34 31 29 27 29 30 29 30 30 31
3 8 6 4 4 4 6 7 8 16 19 25 25 22 22 18 19 18 22 27 28 29 28 29 30 31 31 33 36 38 39 40 42 43 43 42 42 40 40 40 38 36 34 34 33 33 33 33 33
5 4 4 7 13 14 13 16 15 14 18 10 9 14 15 15 14 15 15 22 28 31 32 33 32 33 34 34 36 38 39 41 42 42 44 45 45 44 43 43 43 42 40 38 38 38 37 36 35
2 7 12 9 17 10 10 9 2 2 6 9 19 11 13 14 15 15 14 17 23 28 32 34 36 35 34 37 37 39 38 40 40 40 41 45 45 46 45 45 45 44 41 39 38 38 38 37 36
4 7 9 5 2 3 3 7 7 1 12 25 14 13 11 12 13 14 15 16 17 22 32 35 36 38 38 39 39 40 40 39 38 39 39 41 43 44 44 45 47 48 45 41 37 37 38 39 39
3 1 4 1 5 3 3 10 7 4 22 16 12 10 10 11 12 12 13 14 15 18 23 26 29 32 36 39 41 42 43 41 38 39 38 40 41 41 40 42 48 49 45 27 40 38 41 41 39
2 6 5 6 2 1 4 12 8 18 14 9 7 7 7 9 14 15 14 12 13 16 19 22 25 24 27 30 35 40 41 42 39 37 36 36 37 38 40 41 44 49 42 35 39 37 37 37 36
3 3 5 7 1 4 13 20 25 8 3 3 2 6 9 13 17 19 20 18 12 11 11 13 16 16 20 24 29 35 39 40 39 39 35 35 34 36 38 41 35 37 39 37 36 40 37 34 41
1 3 11 17 10 7 18 18 20 14 3 3 6 9 11 13 15 17 18 19 21 18 13 11 12 11 12 19 23 30 35 37 37 35 34 35 32 32 33 34 33 31 36 37 33 38 35 46 44
4 7 11 16 10 6 17 20 18 8 2 5 8 10 11 14 17 19 20 20 21 20 20 23 19 16 11 13 17 20 26 30 33 35 33 31 31 30 30 31 30 30 34 35 38 40 43 47 48
4 7 8 15 19 9 13 15 4 3 9 11 11 10 13 15 18 21 23 25 23 21 20 20 19 19 20 21 17 9 4 8 16 16 23 25 25 27 31 25 27 25 29 33 35 43 48 49 54
11 5 12 15 10 9 7 15 9 3 8 9 11 13 14 17 19 22 24 23 22 18 14 11 12 13 14 13 12 15 15 12 15 9 5 8 12 21 22 21 18 24 27 33 35 39 48 52 53
10 6 8 11 14 13 14 9 2 9 6 7 9 12 16 16 18 20 22 23 22 21 19 16 15 14 14 14 11 9 11 11 9 10 11 13 10 9 13 19 23 22 28 30 34 39 45 54 48
5 6 12 1 3 6 6 13 3 3 3 7 10 14 16 18 18 21 25 27 28 27 28 28 28 22 19 16 14 14 13 12 14 14 16 19 16 18 14 12 18 23 21 29 33 42 49 52 36
3 12 7 3 2 5 1 5 7 8 10 11 13 14 16 15 18 20 24 27 28 29 27 27 27 27 29 25 20 16 19 17 17 18 19 19 18 24 21 16 15 15 21 23 31 36 36 47 46
9 5 4 8 6 11 8 10 2 9 12 14 13 14 16 17 18 21 26 29 31 31 30 29 28 28 26 25 24 23 21 21 22 24 26 24 25 27 24 21 23 18 16 19 30 37 36 48 49
4 5 2 6 11 8 6 3 3 7 8 9 14 16 19 18 20 24 27 27 28 29 29 30 32 30 28 29 22 17 19 18 16 14 18 22 20 26 22 27 30 32 31 26 28 26 31 49 52
5 3 5 1 5 7 7 13 5 11 3 7 13 20 21 20 24 27 26 26 28 31 32 36 36 31 28 24 14 16 18 17 17 17 17 17 21 17 19 24 27 29 31 32 32 30 33 40 48
4 5 3 3 3 5 10 4 7 11 4 6 18 23 20 19 21 22 24 24 26 24 24 35 39 31 23 18 14 13 14 15 14 16 16 18 17 15 15 22 25 27 30 32 36 37 39 27 48
3 5 5 5 5 4 5 8 11 6 2 18 19 17 15 16 20 21 23 23 27 26 26 35 35 28 20 15 10 10 8 10 12 12 14 16 18 16 15 20 25 25 27 28 33 42 41 40 40
Wind_Direction
147 122 126 128 179 314 198 181 304 284 249 217 292 207 217 277 199 311 290 156 176 193 191 184 187 188 192 189 187 185 186 183 183 185 185 184 184 184 181 178 177 176 176 176 173 174 174 169 169
152 136 117 99 117 224 112 244 246 295 309 295 273 207 212 213 211 262 146 160 168 193 194 190 189 189 193 193 191 191 188 187 186 188 189 189 189 187 184 182 180 182 183 181 179 180 181 175 174
156 149 97 82 109 211 122 216 280 310 343 249 276 212 203 142 201 173 193 186 186 192 197 199 194 193 196 198 198 198 195 193 193 194 195 195 193 191 187 185 186 188 187 187 186 186 187 183 179
157 130 61 129 213 230 245 312 305 328 2 11 305 264 239 229 163 234 202 195 195 196 198 203 202 200 201 203 205 205 202 200 200 199 199 200 197 193 190 191 191 192 193 191 192 194 192 191 187
153 105 96 98 254 259 242 272 302 334 345 338 16 343 300 349 247 274 212 200 199 197 196 202 206 206 206 209 211 211 209 208 206 204 205 205 202 199 198 196 197 200 199 197 197 198 197 197 196
115 104 149 233 233 249 275 255 284 324 333 344 358 356 317 8 330 268 230 204 209 206 200 204 206 211 213 214 217 217 215 214 212 211 212 210 208 206 204 203 206 206 205 200 200 201 198 203 206
138 133 192 251 262 283 238 126 313 340 331 351 333 334 319 350 341 304 242 218 217 208 206 207 210 214 218 220 221 221 221 220 219 219 217 214 214 210 211 211 212 214 209 209 206 204 203 202 202
162 118 155 224 232 275 259 1 339 356 329 334 331 0 319 322 322 312 267 242 224 215 213 214 215 217 219 221 223 224 224 224 224 224 222 220 219 217 215 215 217 219 216 214 211 208 207 206 200
163 142 200 235 198 249 265 347 326 314 281 308 299 306 325 325 319 290 260 240 232 228 224 223 222 220 220 221 222 223 225 227 227 227 225 223 219 216 218 220 220 215 214 214 211 211 209 207 200
175 187 216 222 211 266 295 310 310 309 298 291 303 310 310 306 303 285 265 260 250 247 241 232 229 228 227 225 224 223 223 225 226 227 226 223 221 220 218 221 220 217 215 212 211 210 211 208 200
166 234 205 228 237 280 291 298 279 283 298 295 303 313 313 311 301 281 263 259 260 264 250 246 239 233 231 229 227 225 224 223 226 228 228 226 224 220 220 222 222 222 213 210 208 205 210 209 206
234 246 235 266 252 273 268 285 266 265 271 296 302 304 314 330 325 306 275 266 262 263 257 253 249 244 242 238 235 230 227 226 226 227 228 226 225 223 222 226 229 228 218 210 211 210 210 212 210
218 258 268 279 286 274 270 259 264 268 293 320 330 341 338 334 325 318 288 262 260 262 257 259 254 248 245 241 240 236 231 230 229 229 229 229 228 227 228 227 230 231 224 213 212 212 213 214 211
225 277 284 281 271 269 258 272 232 246 356 2 341 338 334 331 326 325 308 278 265 262 259 263 264 259 251 248 246 242 239 235 232 232 232 234 232 228 228 229 232 232 229 220 215 217 216 216 211
290 302 307 259 272 253 238 256 226 344 356 332 341 342 342 335 322 313 311 306 292 274 266 261 262 263 260 254 249 247 246 240 237 232 237 239 237 232 239 236 239 238 235 226 220 218 220 218 212
326 298 311 311 308 307 202 283 238 350 334 328 335 354 356 4 359 336 314 301 291 283 271 262 258 256 256 256 253 249 247 242 241 238 241 241 237 237 244 248 242 243 238 239 240 216 218 218 214
22 278 277 305 297 187 216 290 261 317 327 353 8 4 44 44 35 27 9 337 311 298 285 273 263 260 261 258 252 249 247 246 247 246 245 244 243 241 242 247 251 248 241 243 226 220 219 212 210
182 268 267 263 300 274 283 275 285 306 312 143 126 66 58 54 51 50 46 37 15 353 331 302 277 263 262 261 254 251 245 247 248 251 249 250 247 244 243 248 255 262 244 237 234 226 219 218 214
82 264 279 286 268 271 267 269 275 280 154 143 89 72 59 48 49 52 47 45 47 40 21 5 353 314 276 266 263 255 251 251 246 250 257 255 251 243 245 248 251 254 253 247 228 215 227 212 209
240 274 287 283 289 220 280 272 260 250 119 107 86 67 51 42 40 39 38 39 40 45 47 46 45 19 313 277 257 251 245 246 240 247 248 248 254 250 245 243 246 252 245 244 235 230 228 213 207
241 266 287 288 312 273 294 274 208 103 110 90 71 67 55 45 37 34 32 32 36 34 32 35 37 39 32 31 1 306 242 221 223 237 242 244 247 248 243 249 251 252 250 248 251 245 221 202 205
289 234 276 289 304 290 3 294 287 145 109 79 69 61 52 39 33 28 22 21 19 20 22 23 16 8 1 8 0 355 0 1 357 338 334 291 254 243 243 234 246 249 250 251 249 236 223 219 216
273 308 291 282 267 290 252 265 13 120 126 102 70 55 41 32 25 17 11 9 8 360 356 347 340 335 336 340 339 331 325 321 302 310 321 321 308 313 279 245 243 236 245 243 245 242 225 217 213
309 308 295 263 259 248 277 229 50 5 152 116 78 51 26 12 9 2 357 352 349 346 342 341 339 328 319 313 313 306 296 296 294 293 287 286 296 279 286 276 254 250 242 246 249 254 233 223 218
50 341 312 270 232 259 356 277 289 101 104 91 73 29 11 2 354 349 345 342 338 334 331 327 325 324 319 307 301 292 288 284 286 285 276 260 264 272 285 268 261 264 246 238 250 233 243 225 217
326 274 259 290 287 287 285 258 135 122 103 87 36 12 359 351 347 342 337 332 328 323 320 317 309 303 301 299 299 295 292 286 279 283 283 279 272 264 252 258 262 263 268 266 243 232 243 233 226
127 216 304 283 277 283 235 107 169 155 104 43 8 0 355 345 333 332 328 322 321 319 319 322 318 307 303 302 290 276 283 293 295 291 286 284 280 267 260 250 250 246 243 244 255 241 240 225 223
235 170 257 27 282 267 252 268 233 173 122 357 355 350 340 331 329 324 321 325 328 325 319 321 316 305 298 299 285 286 290 293 295 294 287 287 274 269 255 251 251 256 249 246 237 254 254 241 228
214 236 223 303 236 264 295 270 149 148 142 4 344 328 316 310 310 314 319 319 316 315 309 320 321 304 293 285 278 282 291 300 298 291 288 279 280 273 256 252 254 254 249 241 242 239 242 242 236
285 251 229 228 219 235 276 282 155 119 294 343 326 314 304 304 309 310 311 314 317 320 315 329 319 304 294 279 283 297 315 320 316 309 304 297 291 285 278 259 255 253 249 246 241 239 236 228 226
Height
1515 1516 1517 1518 1522 1523 1524 1520 1520 1514 1511 1506 1506 1506 1503 1504 1503 1506 1495 1495 1496 1497 1498 1502 1506 1509 1512 1515 1519 1522 1524 1526 1528 1530 1532 1534 1536 1538 1539 1541 1543 1545 1547 1549 1552 1552 1552 1553 1554
1515 1516 1517 1517 1522 1522 1520 1520 1515 1509 1506 1503 1500 1501 1502 1499 1498 1497 1496 1496 1497 1499 1499 1501 1505 1508 1511 1514 1517 1520 1522 1524 1526 1528 1530 1533 1535 1537 1539 1541 1543 1546 1548 1550 1551 1552 1554 1554 1555
1515 1516 1518 1520 1528 1520 1516 1512 1508 1505 1502 1500 1499 1498 1497 1496 1497 1497 1497 1497 1497 1499 1500 1502 1505 1508 1510 1513 1516 1519 1521 1523 1525 1527 1530 1531 1533 1536 1537 1538 1541 1543 1545 1548 1551 1553 1554 1555 1556
1515 1517 1521 1521 1523 1521 1517 1508 1508 1505 1499 1499 1500 1498 1497 1496 1496 1496 1497 1497 1498 1499 1501 1502 1504 1507 1509 1511 1514 1517 1520 1523 1525 1527 1528 1530 1532 1534 1534 1537 1540 1543 1545 1547 1549 1551 1552 1555 1556
1515 1516 1520 1525 1524 1517 1512 1509 1509 1506 1504 1500 1498 1498 1497 1496 1497 1497 1497 1497 1498 1498 1499 1500 1502 1505 1509 1511 1514 1516 1518 1520 1523 1525 1527 1529 1531 1531 1531 1533 1536 1538 1541 1545 1548 1551 1554 1555 1554
1514 1516 1522 1522 1521 1514 1509 1507 1507 1507 1506 1502 1498 1496 1496 1496 1496 1496 1496 1497 1498 1499 1499 1500 1502 1504 1507 1510 1512 1514 1516 1518 1521 1523 1525 1528 1530 1531 1531 1533 1535 1538 1540 1542 1545 1547 1548 1553 1556
1513 1515 1519 1520 1519 1514 1507 1506 1506 1505 1506 1503 1500 1496 1495 1495 1495 1494 1495 1496 1497 1498 1500 1500 1501 1503 1505 1507 1510 1512 1514 1516 1518 1520 1523 1526 1529 1530 1532 1534 1535 1536 1539 1540 1541 1543 1546 1547 1550
1512 1514 1520 1518 1516 1512 1507 1507 1506 1505 1501 1501 1501 1497 1495 1495 1495 1495 1494 1494 1496 1497 1498 1499 1499 1500 1502 1503 1505 1508 1510 1513 1516 1519 1521 1524 1527 1530 1530 1532 1534 1536 1538 1538 1540 1542 1543 1545 1546
1511 1515 1518 1513 1515 1508 1508 1507 1505 1503 1500 1500 1498 1498 1496 1495 1494 1493 1492 1492 1493 1494 1495 1495 1496 1497 1497 1499 1501 1504 1507 1510 1513 1516 1519 1522 1524 1526 1528 1530 1532 1534 1535 1537 1538 1541 1542 1544 1546
1510 1513 1511 1508 1507 1506 1505 1506 1503 1500 1496 1496 1495 1494 1493 1492 1491 1491 1490 1490 1490 1490 1490 1491 1493 1494 1496 1498 1499 1501 1504 1507 1510 1512 1515 1517 1518 1520 1522 1524 1528 1532 1535 1535 1536 1537 1540 1542 1544
1508 1506 1506 1505 1504 1504 1502 1500 1499 1496 1490 1492 1490 1485 1488 1487 1487 1487 1487 1487 1487 1487 1487 1488 1488 1489 1491 1492 1494 1496 1498 1501 1503 1507 1510 1512 1514 1516 1520 1522 1524 1527 1530 1531 1533 1532 1536 1538 1540
1506 1503 1503 1502 1502 1501 1499 1497 1494 1493 1489 1488 1487 1486 1485 1484 1482 1481 1482 1484 1484 1483 1483 1483 1484 1485 1486 1488 1489 1490 1492 1495 1497 1498 1503 1507 1510 1512 1514 1516 1519 1521 1523 1525 1530 1530 1531 1534 1536
1502 1500 1500 1499 1498 1495 1494 1491 1489 1486 1484 1485 1485 1484 1482 1480 1478 1477 1475 1476 1477 1478 1479 1480 1479 1480 1481 1481 1482 1483 1485 1488 1490 1493 1497 1501 1503 1506 1508 1511 1511 1514 1516 1518 1521 1525 1527 1528 1532
1499 1497 1496 1495 1491 1490 1488 1486 1486 1482 1483 1483 1483 1481 1479 1478 1476 1475 1473 1471 1472 1471 1473 1474 1475 1476 1478 1478 1478 1480 1481 1483 1485 1488 1492 1495 1497 1500 1502 1505 1506 1509 1513 1515 1518 1521 1522 1524 1527
1497 1496 1492 1488 1488 1485 1484 1481 1480 1479 1478 1479 1478 1478 1478 1477 1475 1472 1470 1469 1468 1467 1468 1467 1467 1469 1470 1471 1472 1474 1475 1477 1480 1483 1485 1489 1494 1493 1496 1499 1501 1503 1506 1509 1514 1519 1524 1522 1522
1497 1498 1495 1487 1487 1485 1484 1476 1474 1477 1477 1476 1476 1476 1476 1475 1472 1470 1467 1465 1463 1462 1461 1460 1459 1459 1461 1463 1465 1466 1467 1469 1472 1473 1479 1481 1483 1487 1491 1494 1495 1498 1494 1490 1510 1508 1518 1521 1522
1501 1497 1498 1491 1486 1485 1484 1476 1468 1476 1476 1477 1476 1474 1474 1473 1471 1468 1465 1462 1460 1458 1455 1453 1452 1452 1453 1454 1456 1458 1460 1462 1466 1467 1471 1475 1478 1481 1482 1485 1488 1490 1491 1499 1502 1507 1516 1517 1520
1497 1498 1493 1495 1486 1484 1481 1479 1465 1472 1473 1472 1472 1473 1474 1474 1472 1470 1466 1463 1460 1457 1454 1451 1450 1450 1450 1449 1450 1452 1454 1456 1458 1461 1466 1468 1471 1474 1477 1480 1482 1486 1491 1492 1498 1502 1509 1511 1518
1499 1499 1495 1482 1484 1487 1478 1472 1465 1466 1469 1472 1474 1476 1476 1475 1474 1471 1469 1466 1462 1457 1453 1450 1449 1450 1450 1449 1449 1448 1448 1451 1453 1457 1461 1464 1467 1468 1470 1473 1476 1477 1483 1487 1489 1495 1499 1504 1507
1501 1500 1494 1483 1479 1483 1469 1463 1462 1462 1467 1472 1475 1476 1476 1475 1474 1472 1469 1466 1463 1460 1458 1455 1452 1452 1451 1450 1447 1446 1445 1446 1446 1450 1454 1458 1461 1462 1465 1466 1467 1471 1474 1481 1485 1487 1488 1499 1502
1497 1497 1492 1489 1477 1476 1471 1449 1458 1467 1470 1473 1476 1478 1477 1476 1475 1472 1469 1467 1464 1463 1460 1458 1456 1454 1454 1452 1451 1448 1443 1441 1442 1444 1447 1448 1452 1455 1458 1458 1460 1462 1466 1471 1476 1477 1477 1487 1490
1496 1488 1488 1487 1488 1484 1477 1449 1448 1465 1474 1476 1478 1479 1479 1479 1477 1475 1472 1469 1466 1464 1463 1460 1459 1455 1454 1451 1449 1448 1445 1443 1443 1444 1442 1444 1445 1449 1450 1450 1453 1456 1458 1461 1464 1470 1471 1478 1479
1488 1486 1485 1483 1483 1483 1479 1478 1447 1469 1476 1479 1482 1483 1483 1481 1479 1476 1473 1471 1469 1467 1464 1461 1457 1456 1453 1450 1448 1446 1444 1443 1443 1442 1442 1440 1446 1445 1445 1445 1447 1449 1451 1453 1456 1461 1465 1468 1471
1484 1484 1480 1487 1485 1485 1470 1472 1459 1473 1476 1480 1482 1483 1482 1480 1478 1477 1474 1471 1468 1465 1462 1458 1456 1453 1451 1447 1444 1444 1442 1440 1439 1437 1437 1438 1437 1445 1440 1441 1443 1442 1441 1446 1450 1452 1455 1457 1466
1485 1485 1484 1478 1481 1470 1472 1471 1449 1479 1479 1480 1482 1482 1481 1479 1477 1474 1471 1467 1464 1461 1458 1454 1452 1449 1445 1443 1443 1440 1439 1435 1433 1434 1433 1432 1426 1432 1435 1436 1438 1438 1435 1437 1440 1442 1447 1450 1455
1486 1490 1497 1492 1471 1459 1462 1459 1462 1479 1481 1482 1482 1482 1481 1479 1477 1475 1471 1467 1462 1457 1453 1448 1444 1440 1438 1435 1435 1437 1435 1431 1426 1425 1428 1425 1422 1424 1429 1427 1435 1435 1433 1435 1435 1434 1439 1440 1449
1491 1492 1489 1491 1476 1476 1447 1475 1480 1481 1483 1484 1484 1482 1481 1479 1475 1470 1466 1462 1458 1453 1448 1443 1438 1434 1431 1431 1427 1426 1431 1425 1422 1417 1419 1418 1412 1419 1411 1419 1421 1429 1422 1425 1434 1432 1434 1434 1439
1484 1485 1492 1496 1491 1471 1438 1439 1447 1478 1485 1484 1482 1481 1478 1475 1471 1467 1463 1459 1455 1451 1445 1439 1432 1426 1424 1424 1421 1424 1421 1418 1415 1414 1414 1411 1417 1410 1407 1411 1418 1418 1418 1414 1422 1427 1431 1431 1432
1485 1486 1488 1493 1494 1477 1459 1441 1469 1476 1480 1481 1482 1479 1475 1472 1468 1464 1461 1456 1451 1445 1440 1433 1427 1422 1417 1418 1418 1414 1415 1414 1410 1412 1410 1410 1410 1401 1400 1404 1406 1408 1410 1409 1412 1414 1422 1426 1427
1483 1483 1483 1493 1483 1484 1481 1449 1473 1478 1479 1477 1477 1474 1471 1469 1465 1460 1454 1450 1447 1441 1434 1427 1419 1416 1414 1413 1414 1414 1409 1412 1411 1407 1405 1405 1400 1390 1393 1397 1399 1400 1400 1400 1404 1407 1411 1413 1416